Location: Dresden
(51.0500°N, 13.7500°E)
Time: 03:52:38
(UTC+00:00)

ISS - Visible Passes

Search period start: 26 February 2018 00:00
Search period end: 08 March 2018 00:00
Orbit: 403 x 406 km, 51.6° (Epoch: 26 February)

Date Brightness Start Highest point End Pass type
(mag) Time Alt. Az. Time Alt. Az. Time Alt. Az.
28 Feb -1.9 05:16:38 10° SSW 05:19:29 28° SSE 05:22:20 10° E visible
01 Mar -1.3 04:25:04 10° S 04:27:24 18° SE 04:29:46 10° E visible
02 Mar -1.0 03:34:18 10° SSE 03:35:23 12° SE 03:36:37 10° ESE visible
02 Mar -2.9 05:08:05 10° SW 05:11:15 47° SSE 05:14:25 10° E visible
03 Mar -2.4 04:17:00 16° SSW 04:19:04 32° SSE 04:22:03 10° E visible
04 Mar -1.8 03:26:55 21° SE 03:26:56 21° SE 03:29:31 10° E visible
04 Mar -3.7 04:59:47 10° WSW 05:03:03 73° SSE 05:06:20 10° E visible
05 Mar -3.3 04:09:24 29° SW 04:10:47 53° SSE 04:14:00 10° E visible
06 Mar -2.4 03:19:09 33° SE 03:19:09 33° SE 03:21:37 10° E visible
06 Mar -3.8 04:51:48 11° W 04:54:53 86° NNW 04:58:10 10° E visible
07 Mar -0.5 02:28:50 12° E 02:28:50 12° E 02:29:06 10° E visible
07 Mar -3.9 04:01:29 40° WSW 04:02:32 79° SSE 04:05:50 10° E visible
